Weather WX

World > North America > United States > North Carolina

Maury, North Carolina Regional Weather

Lat: 35.48N, Lon: 77.59W
Wx Zone: NCZ079
Feedback

Maury, NC Regional Weather

Expires:201906250800;;040819
ASUS42 KMHX 250725
RWRMHX
WEATHER ROUNDUP FOR EASTERN NORTH CAROLINA
NATIONAL WEATHER SERVICE NEWPORT/MOREHEAD CITY NC
300 AM EDT TUE JUN 25 2019

NOTE: "FAIR" INDICATES FEW OR NO CLOUDS BELOW 12,000 FEET
WITH NO SIGNIFICANT WEATHER AND/OR OBSTRUCTIONS TO VISIBILITY


NCZ011>013-027>030-043-044-078>080-089-090>093-098-250800-
COASTAL PLAIN
  
CITY           SKY/WX    TMP DP  RH WIND       PRES   REMARKS
AHOSKIE        FAIR      74  74  98 S6        29.84F                  
CLINTON        FAIR     N/A N/A N/A SW8       29.88R                  
ELIZABETHTOWN  FAIR      78  72  80 W6        29.88F                  
GOLDSBORO      FAIR      78  74  85 S7        29.84F                  
GREENVILLE     FAIR      79  73  83 S8        29.86F                  
HAVELOCK       FAIR      80  74  81 SW7       29.88F                  
KENANSVILLE    FAIR      77  73  88 SW3       29.87S                  
KINSTON        FAIR      78  73  85 SW6       29.86F                  
NEW BERN       FAIR      77  76  96 S6        29.87F                  
RICHLANDS      FAIR      74  74 100 S6        29.88F                  
ROCKY MOUNT    FAIR      78  74  87 S7        29.84F                  
WASHINGTON     FAIR      77  73  87 S5        29.85F                  
WHITEVILLE     FAIR      78  69  75 CALM      29.88F                  

$$


SKY/WX - Weather  TMP - Temperature  DP - Dew Point  RH - Relative Humidity
WIND - Wind Direction/Speed PRES - Barometric Pressure VSB - Visibility
WCI - Wind Chill Index E13G22 Wind - East Wind 13 mph/Gusts of 22 mph